Salina, KS

2:09 AM CDT on July 25, 2016 (GMT -0500)
Salina Municipal

Weather History for KSLN - September, 2012

Change the Weather History Date:

Saturday, September 8, 2012

  Actual Average Record
Temperature  
Mean Temperature 67 °F 74 °F  
Max Temperature 82 °F 85 °F 106 °F (1922)
Min Temperature 51 °F 62 °F 43 °F (1898)
Degree Days  
Heating Degree Days 0 1  
Month to date heating degree days 0 1  
Since 1 July heating degree days 0 2  
Cooling Degree Days 2 9  
Month to date cooling degree days 107 82  
Year to date cooling degree days 1985 1489  
Growing Degree Days 17 (Base 50)    
Moisture  
Dew Point 47 °F    
Average Humidity 55    
Maximum Humidity 86    
Minimum Humidity 24    
Precipitation  
Precipitation 0.00 in 0.09 in 1.30 in (1954)
Month to date precipitation 0.58 0.77  
Year to date precipitation 14.91 25.11  
Sea Level Pressure  
Sea Level Pressure 30.14 in    
Wind  
Wind Speed 7 mph (WNW)    
Max Wind Speed 16 mph    
Max Gust Speed 23 mph    
Visibility 10 miles    
Events      
T = Trace of Precipitation, MM = Missing Value Source: NWS Daily Summary

Daily Weather History Graph

Daily Weather History Graph

Search for Another Location

Airport or City:

Trip Planner

Search our weather history database for the weather conditions in past years. The results will help you decide how hot, cold, wet, or windy it might be!

Date:

Astronomy

Sep. 08, 2012 Rise Set
Actual Time 7:06 AM CDT 7:49 PM CDT
Civil Twilight 6:39 AM CDT 8:16 PM CDT
Nautical Twilight 6:07 AM CDT 8:47 PM CDT
Astronomical Twilight 5:34 AM CDT 9:20 PM CDT
Moon No Moon Rise 2:44 PM CDT (9/8)
Length of Visible Light 13h 36m
Length of Day
12h 42m
Waning Gibbous, 48% of the Moon is Illuminated
Sep 8
Waning Gibbous
Sep 15
New
Sep 22
First Quarter
Sep 29
Full
Oct 8
Last Quarter

Hourly Weather History & Observations

Time (CDT) Temp. Dew Point Humidity Pressure Visibility Wind Dir Wind Speed Gust Speed Precip Events Conditions
12:53 AM 57.0 °F 51.1 °F 81% 30.16 in 10.0 mi NW 5.8 mph - N/A   Unknown
1:53 AM 55.9 °F 51.1 °F 84% 30.17 in 10.0 mi NW 6.9 mph - N/A   Unknown
2:53 AM 55.0 °F 48.9 °F 80% 30.18 in 10.0 mi NNW 5.8 mph - N/A   Unknown
3:53 AM 53.1 °F 46.9 °F 80% 30.18 in 10.0 mi WNW 3.5 mph - N/A   Unknown
4:53 AM 52.0 °F 46.9 °F 83% 30.19 in 10.0 mi WNW 5.8 mph - N/A   Unknown
5:53 AM 52.0 °F 46.9 °F 83% 30.19 in 10.0 mi WNW 6.9 mph - N/A   Unknown
6:53 AM 52.0 °F 46.0 °F 80% 30.21 in 10.0 mi WNW 4.6 mph - N/A   Clear
7:53 AM 53.1 °F 46.0 °F 77% 30.23 in 10.0 mi WNW 3.5 mph - N/A   Clear
8:53 AM 59.0 °F 48.9 °F 69% 30.24 in 10.0 mi NW 8.1 mph - N/A   Clear
9:53 AM 64.0 °F 51.1 °F 63% 30.24 in 10.0 mi NNW 5.8 mph - N/A   Clear
10:53 AM 69.1 °F 51.1 °F 53% 30.23 in 10.0 mi WNW 8.1 mph - N/A   Clear
11:53 AM 73.0 °F 48.9 °F 42% 30.21 in 10.0 mi WNW 10.4 mph - N/A   Clear
12:53 PM 75.9 °F 44.1 °F 32% 30.19 in 10.0 mi NNW 10.4 mph - N/A   Clear
1:53 PM 78.1 °F 43.0 °F 29% 30.16 in 10.0 mi NNW 16.1 mph 19.6 mph N/A   Clear
2:53 PM 80.1 °F 43.0 °F 27% 30.12 in 10.0 mi WNW 9.2 mph 19.6 mph N/A   Clear
3:53 PM 81.0 °F 42.1 °F 25% 30.09 in 10.0 mi NW 9.2 mph 18.4 mph N/A   Clear
4:53 PM 82.0 °F 43.0 °F 25% 30.07 in 10.0 mi WNW 13.8 mph 19.6 mph N/A   Clear
5:53 PM 82.0 °F 43.0 °F 25% 30.05 in 10.0 mi WNW 9.2 mph - N/A   Clear
6:53 PM 80.1 °F 45.0 °F 29% 30.05 in 10.0 mi WSW 4.6 mph - N/A   Clear
7:53 PM 73.9 °F 48.0 °F 40% 30.04 in 10.0 mi SW 6.9 mph - N/A   Clear
8:53 PM 68.0 °F 48.9 °F 50% 30.05 in 10.0 mi SSW 6.9 mph - N/A   Clear
9:53 PM 64.9 °F 50.0 °F 58% 30.05 in 10.0 mi SSW 6.9 mph - N/A   Clear
10:53 PM 57.9 °F 51.1 °F 78% 30.06 in 10.0 mi SSW 5.8 mph - N/A   Clear
11:53 PM 61.0 °F 48.9 °F 64% 30.06 in 10.0 mi South 3.5 mph - N/A   Unknown